Weather History for San Diego, CA

Change the Weather History Date:

Saturday, January 5, 2013

  Actual Average Record
Temperature  
Mean Temperature 52 °F 57 °F  
Max Temperature 62 °F 65 °F 83 °F (2012)
Min Temperature 41 °F 48 °F 30 °F (1949)
Degree Days  
Heating Degree Days 13 8  
Month to date heating degree days 58 43  
Since 1 July heating degree days 378 450  
Cooling Degree Days 0 0  
Month to date cooling degree days 0 0  
Year to date cooling degree days 0 0  
Growing Degree Days 2 (Base 50)    
Moisture  
Dew Point 34 °F    
Average Humidity 52    
Maximum Humidity 77    
Minimum Humidity 27    
Precipitation  
Precipitation 0.00 in 0.06 in 0.99 in (1992)
Month to date precipitation 0.00 0.33  
Year to date precipitation 0.00 0.33  
Since 1 July precipitation 3.17 3.64  
Snow  
Snow 0.00 in - - ()
Month to date snowfall 0.0  
Year to date snowfall 0.0  
Since 1 July snowfall 0.0  
Snow Depth 0.00 in    
Sea Level Pressure  
Sea Level Pressure 30.25 in    
Wind  
Wind Speed 2 mph (NW)    
Max Wind Speed 10 mph    
Max Gust Speed 14 mph    
Visibility 10 miles    
Events      
T = Trace of Precipitation, MM = Missing Value Source: NWS Daily Summary

Daily Weather History Graph

Daily Weather History Graph

Search for Another Location

Airport:

Trip Planner

Search our weather history database for the weather conditions in past years. The results will help you decide how hot, cold, wet, or windy it might be!

Date:

Astronomy

Jan. 05, 2013 Rise Set
Actual Time 6:51 AM PST 4:57 PM PST
Civil Twilight 6:24 AM PST 5:24 PM PST
Nautical Twilight 5:54 AM PST 5:54 PM PST
Astronomical Twilight 5:24 AM PST 6:24 PM PST
Moon 12:14 AM PST (1/5) 11:40 AM PST (1/5)
Length of Visible Light 10h 59m
Length of Day
10h 05m
Last Quarter, 43% of the Moon is Illuminated
Jan 5
Last Quarter
Jan 11
New
Jan 18
First Quarter
Jan 26
Full
Feb 3
Last Quarter

Hourly Weather History & Observations

Time (PST) Temp. Windchill Dew Point Humidity Pressure Visibility Wind Dir Wind Speed Gust Speed Precip Events Conditions
12:51 AM 46.9 °F - 26.1 °F 44% 30.27 in 10.0 mi Calm Calm - N/A   Clear
1:51 AM 46.0 °F - 25.0 °F 44% 30.26 in 10.0 mi Calm Calm - N/A   Clear
2:51 AM 44.1 °F - 26.1 °F 49% 30.27 in 10.0 mi Calm Calm - N/A   Clear
3:51 AM 43.0 °F - 26.1 °F 51% 30.26 in 10.0 mi Calm Calm - N/A   Clear
4:51 AM 42.1 °F - 26.1 °F 53% 30.27 in 10.0 mi Calm Calm - N/A   Clear
5:51 AM 41.0 °F - 27.0 °F 57% 30.27 in 10.0 mi Calm Calm - N/A   Clear
6:51 AM 42.1 °F 40.2 °F 24.1 °F 49% 30.28 in 10.0 mi North 3.5 mph - N/A   Partly Cloudy
7:51 AM 46.0 °F - 24.1 °F 42% 30.30 in 10.0 mi Calm Calm - N/A   Clear
8:51 AM 50.0 °F - 27.0 °F 41% 30.31 in 10.0 mi Calm Calm - N/A   Partly Cloudy
9:51 AM 54.0 °F - 30.0 °F 40% 30.30 in 10.0 mi Calm Calm - N/A   Partly Cloudy
10:51 AM 57.9 °F - 28.0 °F 32% 30.28 in 10.0 mi Calm Calm - N/A   Partly Cloudy
11:51 AM 61.0 °F - 26.1 °F 26% 30.25 in 10.0 mi WNW 5.8 mph - N/A   Partly Cloudy
12:51 PM 61.0 °F - 28.9 °F 30% 30.23 in 10.0 mi WNW 6.9 mph - N/A   Partly Cloudy
1:51 PM 60.1 °F - 37.9 °F 44% 30.21 in 10.0 mi WNW 6.9 mph - N/A   Scattered Clouds
2:51 PM 60.1 °F - 36.0 °F 41% 30.20 in 10.0 mi WNW 9.2 mph - N/A   Scattered Clouds
3:51 PM 59.0 °F - 42.1 °F 53% 30.21 in 10.0 mi NW 9.2 mph - N/A   Mostly Cloudy
4:51 PM 57.0 °F - 44.1 °F 62% 30.21 in 10.0 mi NW 5.8 mph - N/A   Mostly Cloudy
5:51 PM 55.9 °F - 43.0 °F 62% 30.22 in 10.0 mi Calm Calm - N/A   Scattered Clouds
6:51 PM 54.0 °F - 43.0 °F 66% 30.21 in 10.0 mi NE 3.5 mph - N/A   Scattered Clouds
7:51 PM 53.1 °F - 43.0 °F 69% 30.22 in 10.0 mi Calm Calm - N/A   Scattered Clouds
8:51 PM 52.0 °F - 43.0 °F 71% 30.23 in 10.0 mi Calm Calm - N/A   Scattered Clouds
9:51 PM 51.1 °F - 43.0 °F 74% 30.25 in 10.0 mi Calm Calm - N/A   Mostly Cloudy
10:51 PM 51.1 °F - 44.1 °F 77% 30.25 in 10.0 mi Calm Calm - N/A   Mostly Cloudy
11:51 PM 50.0 °F - 43.0 °F 77% 30.24 in 9.0 mi Calm Calm - N/A   Mostly Cloudy